Location: Unspecified
(0.0000°N, 0.0000°E)
Time: 23:40:48
(UTC+00:00)

CAS-4A - Visible Passes

Search period start: 18 August 2019 00:00
Search period end: 28 August 2019 00:00
Orbit: 528 x 546 km, 43.0° (Epoch: 17 August)

Date Brightness Start Highest point End Pass type
(mag) Time Alt. Az. Time Alt. Az. Time Alt. Az.
18 Aug ? 19:34:23 10° WSW 19:38:15 42° NW 19:40:14 24° N visible
19 Aug ? 19:24:33 10° WSW 19:28:06 28° NW 19:31:38 10° NNE visible
20 Aug ? 19:14:55 10° W 19:17:56 20° NW 19:20:57 10° N visible
21 Aug ? 05:29:05 10° NNW 05:32:51 35° NE 05:36:38 10° ESE visible
21 Aug ? 19:05:41 10° WNW 19:07:48 14° NW 19:09:54 10° NNW visible
22 Aug ? 05:18:40 10° NNW 05:22:41 53° NE 05:26:42 10° ESE visible
23 Aug ? 05:08:23 10° NW 05:12:30 81° NE 05:16:38 10° SE visible
24 Aug ? 04:59:17 17° NW 05:02:19 66° SW 05:06:25 10° SE visible
25 Aug ? 04:51:20 38° WSW 04:52:09 43° SW 04:56:05 10° SSE visible
26 Aug ? 04:43:10 25° SSW 04:43:10 25° SSW 04:45:37 10° SSE visible
27 Aug ? 04:34:42 11° S 04:34:42 11° S 04:34:56 10° S visible
